Volver al catálogo

SL-12 DEB

LostHEO
NORAD 29406·DEBRIS·🇷🇺 Russia

Lanzado May 31, 1989 desde Baikonur Cosmodrome

Loading…

Próximos Pases (próximas 24 horas)

TLE

ObsoletoSource: Space-Track

Época: Oct 8, 2009, 04:02 UTC

1 29406U 89039BJ  09281.16815434  .00086123  00000-0  30286-1 0  9992
2 29406 064.7375 175.5419 5562770 021.6711 354.8719 04.66573423 50751

Sigue SL-12 DEB en tiempo real con AllMySat

Download on the App Store